Starlink 30500

operational
NORAD ID: 58076 Int'l Des: 2023-160 Owner: SPXS Country: US Constellation: starlink
LEOCIRCULAR

关于 Starlink 30500

正在加载描述...

实时位置

正在加载3D地球...

即将过境

高度历史

Altitude vs Time

uPlot chart will show altitude changes over time

两行轨道根数

1 58076U 23160B 25353.78836662 -.00000149 00000-0 40048-5 0 9998
2 58076 43.0023 153.9906 0001136 262.1798 97.8915 15.02536989120908
Epoch: Dec 19, 2025 • Age: 7 hours

当前状态

高度 559.7 km
速度 7.59 km/s
星下点 26.51°N, 73.5°E
发射日期 Oct 18, 2023
运行时间 2.1 years
类型 internet

技术详情

分类 Payload
质量 730.00 kg
干质量 700.00 kg
总质量 730.00 kg
长度 0.30 m
直径 4.10 m
跨度 29.00 m
形状 Box + pan
制造商 SPXS
平台类型 Starlink V2M
阶段状态 In Orbit
所有者/国家 SPXS/US

大型星座

Loading constellations...